カタリナ彗星

P/2019 Y3 ( Catalina ) 2025

English version
Home page
Updated on September 5, 2024

---------------------------------------------------------------------

・ プロフィール

・ 軌道要素

Epoch 2025 Feb. 14.0 TT = JDT 2460720.5                                         
T 2025 Mar. 3.12637 TT                                  Bell                    
q   0.9310264            (2000.0)            P               Q                  
n   0.18819076     Peri.    2.54858     -0.78382420     -0.55861726             
a   3.0158092      Node   139.30657     +0.56212978     -0.82387888             
e   0.6912847      Incl.   24.58177     +0.26387445     +0.09576193             
P   5.24                                                                        
From 85 observations 2019 Dec. 17-2020 Jan. 27, mean residual 0".7.             

・ 星図

・ 光度変化

        m1 = 18.5 + 5 logΔ + 10.0 log r

---------------------------------------------------------------------

軌道要素はM.P.E.C. 2020-C98に掲載されたものです。
星図はステラナビゲータ Ver.11 (アストロアーツ) で作成したものです。
光度グラフはComet for Windowsで作成したものです。

---------------------------------------------------------------------

Copyright(C) Seiichi Yoshida (comet@aerith.net). All rights reserved.